Flag for Madagascar Weather past 2 weeks in Antsirabe, Madagascar

Now
64 °F

Thundershowers. Passing clouds.


Feels Like: 64 °F
Forecast: 53 / 77 °F
Wind: 3 mph from North

Location: Antananarivo / Ivato

Current Time: Apr 20, 2015 at 12:13:07 AM

Latest Report: Apr 19, 2015 at 11:30 PM


Visibility: N/A

Pressure: 30.21 "Hg

Humidity: 100%

Dew point: 64 °F

Location of AntsirabeLocation

Historic Weather in Antsirabe — Graph

°F

Antsirabe temperature yesterday

Maximum temperature yesterday: 81 °F (at 2:00 PM)
Minimum temperature yesterday: 63 °F (at 6:00 AM)
Average temperature yesterday: 69 °F

Past Weeks' High & Low Weather Summary

 TemperatureHumidityPressure
High86 °F (Apr 5, 1:30 PM)100% (Apr 4, 11:00 PM)32.99 "Hg (Apr 4, 11:00 PM)
Low55 °F (Apr 8, 5:00 AM)31% (Apr 8, 2:30 PM)30.01 "Hg (Apr 5, 2:30 PM)
Average71 °F84%30.14 "Hg
* Reported Apr 4 11:00 PM — Apr 19 11:00 PM, Antsirabe, Weather by CustomWeather, © 2015

Note: Actual official high and low records may vary slightly from our data, if they occured in-between our weather recording intervals... More about our weather records

Advertising

Antsirabe weather history for previous 24 hours

 ConditionsComfort  
Time TempWeatherWind HumidityBarometerVisibility
11:00 PM
Sun, Apr 19
64 °FThundershowers. Passing clouds.2 mph100%30.21 "HgN/A
10:30 PM64 °FThundershowers. Passing clouds.5 mph100%30.21 "HgN/A
10:00 PM64 °FThundershowers. Passing clouds.5 mph100%30.21 "HgN/A
9:30 PM66 °FThundershowers. Passing clouds.6 mph100%30.21 "HgN/A
9:00 PM64 °FThundershowers. Passing clouds.7 mph100%30.21 "HgN/A
8:30 PM64 °FThundershowers. Passing clouds.7 mph100%30.18 "HgN/A
8:00 PM66 °FThundershowers. Passing clouds.7 mph100%30.18 "HgN/A
7:30 PM66 °FThundershowers. Passing clouds.8 mph100%30.18 "HgN/A
7:00 PM68 °FPassing clouds.12 mph94%30.15 "HgN/A
6:30 PM70 °FPassing clouds.9 mph88%30.15 "HgN/A
6:00 PM72 °FPassing clouds.8 mph78%30.12 "HgN/A
5:30 PM73 °FPassing clouds.9 mph74%30.12 "HgN/A
5:00 PM77 °FPassing clouds.9 mph65%30.12 "HgN/A
4:30 PM79 °FPassing clouds.8 mph61%30.09 "HgN/A
4:00 PM79 °FPassing clouds.9 mph61%30.09 "HgN/A
3:30 PM79 °FPassing clouds.7 mph61%30.09 "HgN/A
3:00 PM81 °FPassing clouds.7 mph62%30.09 "HgN/A
2:30 PM81 °FPassing clouds.6 mph62%30.09 "HgN/A
2:00 PM81 °FPassing clouds.6 mph66%30.12 "HgN/A
1:30 PM79 °FPassing clouds.3 mph70%30.12 "HgN/A
1:00 PM75 °FScattered clouds.7 mph74%30.15 "HgN/A
12:30 PM73 °FBroken clouds.10 mph78%30.15 "HgN/A
12:00 PM73 °FBroken clouds.9 mph83%30.18 "HgN/A
11:30 AM75 °FScattered clouds.7 mph83%30.18 "HgN/A
11:00 AM73 °FBroken clouds.5 mph83%30.18 "HgN/A
10:30 AM72 °FBroken clouds.3 mph88%30.21 "HgN/A
10:00 AM72 °FBroken clouds.3 mph88%30.21 "HgN/A
9:30 AM70 °FBroken clouds.3 mph88%30.24 "HgN/A
9:00 AM70 °FBroken clouds.6 mph88%30.21 "HgN/A
8:30 AM68 °FPartly sunny.5 mph94%30.21 "HgN/A
8:00 AM68 °FScattered clouds.5 mph94%30.21 "HgN/A
7:30 AM66 °FScattered clouds.5 mph94%30.21 "HgN/A
7:00 AM68 °FPassing clouds.5 mph100%30.18 "HgN/A
6:30 AM64 °FPassing clouds.5 mph100%30.18 "HgN/A
6:00 AM63 °FPassing clouds.5 mph100%30.18 "HgN/A
5:30 AM64 °FPassing clouds.3 mph100%30.15 "HgN/A
5:00 AM64 °FPassing clouds.3 mph100%30.15 "HgN/A
4:30 AM64 °FPassing clouds.3 mph100%30.15 "HgN/A
4:00 AM64 °FPassing clouds.6 mph100%30.15 "HgN/A
3:30 AM64 °FPassing clouds.6 mph100%30.15 "HgN/A
3:00 AM64 °FPassing clouds.5 mph100%30.15 "HgN/A
2:30 AM64 °FPassing clouds.3 mph100%30.18 "HgN/A
2:00 AM64 °FPassing clouds.5 mph100%30.18 "HgN/A
1:30 AM64 °FPassing clouds.3 mph100%30.18 "HgN/A
1:00 AM64 °FPassing clouds.3 mph100%30.18 "HgN/A
12:00 AM64 °FPassing clouds.7 mph100%30.18 "HgN/A
Weather by CustomWeather, © 2015

See weather overviewHow to use our weather pages